Location: Unspecified
(53.9483°N, 0.0000°E)
Time: 20:08:34
(UTC+00:00)

Iridium 29 - Visible Passes

Search period start: 04 April 2026 00:00
Search period end: 14 April 2026 00:00
Orbit: 768 x 771 km, 86.4° (Epoch: 29 March)

Date Brightness Start Highest point End Pass type
(mag) Time Alt. Az. Time Alt. Az. Time Alt. Az.
4 Apr 6.2 00:40:04 10° NNW 00:44:03 47° NW 00:44:03 47° NW visible
4 Apr 7.8 02:23:48 10° WNW 02:24:21 10° WNW 02:24:21 10° WNW visible
4 Apr 7.5 22:24:28 10° NNE 22:27:45 17° ENE 22:27:54 17° ENE visible
5 Apr 5.9 00:03:56 10° N 00:08:12 60° N 00:08:12 60° N visible
5 Apr 7.4 01:45:40 10° NNW 01:48:29 17° WNW 01:48:29 17° WNW visible
5 Apr 6.2 23:27:57 10° N 23:32:20 47° NE 23:32:20 47° NE visible
6 Apr 6.9 01:08:57 10° NNW 01:12:38 28° WNW 01:12:38 28° WNW visible
6 Apr 6.7 22:52:10 10° N 22:56:29 30° ENE 22:56:29 30° ENE visible
7 Apr 6.2 00:32:33 10° NNW 00:36:47 45° WNW 00:36:47 45° WNW visible
7 Apr 7.3 22:16:38 10° NNE 22:20:20 19° ENE 22:20:38 19° ENE visible
7 Apr 5.7 23:56:22 10° N 00:00:55 68° NNW 00:00:55 68° NNW visible
8 Apr 7.5 01:38:26 10° NW 01:41:13 15° WNW 01:41:13 15° WNW visible
8 Apr 7.7 21:41:53 10° NE 21:43:45 12° ENE 21:44:47 11° ENE visible
8 Apr 5.8 23:20:21 10° N 23:25:04 57° ENE 23:25:04 57° ENE visible
9 Apr 7.0 01:01:31 10° NNW 01:05:22 25° WNW 01:05:22 25° WNW visible
9 Apr 6.4 22:44:29 10° N 22:49:13 35° ENE 22:49:13 35° ENE visible
10 Apr 6.3 00:25:04 10° NNW 00:29:32 40° WNW 00:29:32 40° WNW visible
10 Apr 7.0 22:08:52 10° NNE 22:12:54 22° ENE 22:13:23 22° ENE visible
10 Apr 5.6 23:48:49 10° N 23:53:41 68° WNW 23:53:41 68° WNW visible
11 Apr 7.7 01:31:20 10° NW 01:33:35 13° WNW 01:33:59 13° WNW visible
11 Apr 7.6 21:33:45 10° NNE 21:36:21 14° ENE 21:37:33 13° ENE visible
11 Apr 5.5 23:12:45 10° N 23:17:51 70° ENE 23:17:51 70° ENE visible
12 Apr 7.2 00:54:08 10° NNW 00:58:00 21° WNW 00:58:09 21° W visible
12 Apr 6.1 22:36:50 10° N 22:41:46 41° ENE 22:42:01 41° E visible
13 Apr 6.5 00:17:34 10° NNW 00:22:16 35° W 00:22:19 35° W visible
13 Apr 6.8 22:01:08 10° NNE 22:05:26 25° ENE 22:06:11 25° E visible
13 Apr 5.7 23:41:17 10° N 23:46:23 60° W 23:46:29 59° W visible
